Kasif Kalkavan — V7IX7 — position and weather

sailwx.info

Track history (hours):
 
Tides and Currents Weather Stations Pressure Air Temp Water Temp Dewpoint Dewpoint Depression Visibility Wind Speed Wind Dir Waves Ship Positions

Kasif Kalkavan

Last reported at 2015-Aug-06 19:24 UTC. Time now 2015-Sep-05 16:23 UTC.
Position N 40°58' E 028°55'.
Warning: this ship's position is 29 days out of date.

Type: Cargo ship. MMSI: 538090190.

Date/timePositionNaut miles runAvg speedWind from/ knotsBaromVisibWave heightAir tempDewpointWater temp
2015-Aug-06 19:24N 40°58' E 028°55'1 0.0
2015-Aug-06 02:04N 40°57' E 028°55'611.4
2015-Aug-06 01:33N 40°52' E 028°52'  
2015-Aug-03 05:15N 35°49' E 014°32'0 0.0
2015-Aug-03 04:28N 35°49' E 014°32'6 0.3
2015-Aug-02 11:19N 35°51' E 014°39'0 0.0
2015-Aug-02 08:32N 35°51' E 014°39'0 0.0
2015-Aug-02 04:14N 35°51' E 014°39'0 0.0
2015-Aug-02 03:31N 35°51' E 014°39'0 0.0
2015-Aug-02 02:30N 35°51' E 014°39'0 0.0
2015-Aug-02 01:17N 35°51' E 014°39'0 0.0
2015-Aug-02 00:09N 35°51' E 014°39'0 0.0
2015-Aug-01 22:13N 35°51' E 014°39'0 0.0
2015-Aug-01 19:15N 35°51' E 014°39'0 0.0
2015-Aug-01 18:03N 35°51' E 014°39'0 0.0
2015-Aug-01 12:10N 35°51' E 014°39'0 0.0
2015-Aug-01 11:27N 35°51' E 014°39'0 0.0
2015-Aug-01 10:33N 35°51' E 014°39'0 0.0
2015-Aug-01 09:33N 35°51' E 014°39'0 0.0
2015-Aug-01 08:33N 35°51' E 014°39'0 0.0
2015-Aug-01 07:33N 35°51' E 014°39'0 0.0
2015-Aug-01 06:33N 35°51' E 014°39'0 0.0
2015-Aug-01 05:33N 35°51' E 014°39'0 0.0
2015-Aug-01 04:30N 35°51' E 014°39'0 0.0
2015-Aug-01 03:33N 35°51' E 014°39'0 0.0
2015-Aug-01 02:33N 35°51' E 014°39'0 0.1
2015-Aug-01 01:31N 35°51' E 014°39'0 0.0
2015-Aug-01 00:32N 35°51' E 014°39'0 0.0
2015-Jul-31 23:33N 35°51' E 014°39'0 0.1
2015-Jul-31 22:33N 35°51' E 014°39'0 0.1
2015-Jul-31 21:29N 35°52' E 014°39'0 0.0
2015-Jul-31 20:29N 35°51' E 014°39'0 0.0
2015-Jul-31 19:30N 35°51' E 014°39'1 1.1
2015-Jul-31 18:33N 35°51' E 014°38'2 0.1
2015-Jul-30 15:20N 35°50' E 014°40'0 0.0
2015-Jul-30 11:27N 35°50' E 014°40'0 0.0
2015-Jul-30 10:25N 35°50' E 014°40'0 0.0
2015-Jul-30 09:29N 35°50' E 014°40'0 0.0
2015-Jul-30 08:32N 35°50' E 014°40'0 0.0
2015-Jul-30 07:22N 35°50' E 014°40'0 0.0
2015-Jul-30 06:26N 35°50' E 014°40'0 0.0
2015-Jul-30 05:33N 35°50' E 014°40'0 0.0
2015-Jul-30 04:28N 35°50' E 014°40'0 0.0
2015-Jul-30 03:21N 35°50' E 014°40'0 0.0
2015-Jul-29 21:15N 35°50' E 014°40'0 0.0
2015-Jul-29 20:22N 35°50' E 014°40'0 0.0
2015-Jul-29 19:31N 35°50' E 014°40'0 0.0
2015-Jul-29 18:32N 35°50' E 014°40'0 0.0
2015-Jul-29 17:33N 35°50' E 014°40'0 0.0
2015-Jul-29 16:33N 35°50' E 014°40'0 0.0
2015-Jul-29 15:33N 35°50' E 014°40'0 0.0
2015-Jul-29 14:33N 35°50' E 014°40'0 0.0
2015-Jul-29 13:33N 35°50' E 014°40'0 0.0
2015-Jul-29 12:33N 35°50' E 014°40'0 0.0
2015-Jul-29 11:33N 35°50' E 014°40'0 0.0
2015-Jul-29 10:32N 35°50' E 014°40'1 0.8
2015-Jul-29 09:26N 35°50' E 014°41'6516.3
2015-Jul-29 05:26N 35°53' E 016°02'37615.4
2015-Jul-28 05:04N 37°03' E 023°41'  
Track history (hours):
 
Tides and Currents Weather Stations Pressure Air Temp Water Temp Dewpoint Dewpoint Depression Visibility Wind Speed Wind Dir Waves Ship Positions

Kasif Kalkavan

Last reported at 2015-Aug-06 19:24 UTC. Time now 2015-Sep-05 16:23 UTC.
Position N 40°58' E 028°55'.
Warning: this ship's position is 29 days out of date.

Type: Cargo ship. MMSI: 538090190.

Date/timePositionNaut miles runAvg speedWind from/ knotsBaromVisibWave heightAir tempDewpointWater temp
2015-Aug-06 19:24N 40°58' E 028°55'1 0.0
2015-Aug-06 02:04N 40°57' E 028°55'611.4
2015-Aug-06 01:33N 40°52' E 028°52'  
2015-Aug-03 05:15N 35°49' E 014°32'0 0.0
2015-Aug-03 04:28N 35°49' E 014°32'6 0.3
2015-Aug-02 11:19N 35°51' E 014°39'0 0.0
2015-Aug-02 08:32N 35°51' E 014°39'0 0.0
2015-Aug-02 04:14N 35°51' E 014°39'0 0.0
2015-Aug-02 03:31N 35°51' E 014°39'0 0.0
2015-Aug-02 02:30N 35°51' E 014°39'0 0.0
2015-Aug-02 01:17N 35°51' E 014°39'0 0.0
2015-Aug-02 00:09N 35°51' E 014°39'0 0.0
2015-Aug-01 22:13N 35°51' E 014°39'0 0.0
2015-Aug-01 19:15N 35°51' E 014°39'0 0.0
2015-Aug-01 18:03N 35°51' E 014°39'0 0.0
2015-Aug-01 12:10N 35°51' E 014°39'0 0.0
2015-Aug-01 11:27N 35°51' E 014°39'0 0.0
2015-Aug-01 10:33N 35°51' E 014°39'0 0.0
2015-Aug-01 09:33N 35°51' E 014°39'0 0.0
2015-Aug-01 08:33N 35°51' E 014°39'0 0.0
2015-Aug-01 07:33N 35°51' E 014°39'0 0.0
2015-Aug-01 06:33N 35°51' E 014°39'0 0.0
2015-Aug-01 05:33N 35°51' E 014°39'0 0.0
2015-Aug-01 04:30N 35°51' E 014°39'0 0.0
2015-Aug-01 03:33N 35°51' E 014°39'0 0.0
2015-Aug-01 02:33N 35°51' E 014°39'0 0.1
2015-Aug-01 01:31N 35°51' E 014°39'0 0.0
2015-Aug-01 00:32N 35°51' E 014°39'0 0.0
2015-Jul-31 23:33N 35°51' E 014°39'0 0.1
2015-Jul-31 22:33N 35°51' E 014°39'0 0.1
2015-Jul-31 21:29N 35°52' E 014°39'0 0.0
2015-Jul-31 20:29N 35°51' E 014°39'0 0.0
2015-Jul-31 19:30N 35°51' E 014°39'1 1.1
2015-Jul-31 18:33N 35°51' E 014°38'2 0.1
2015-Jul-30 15:20N 35°50' E 014°40'0 0.0
2015-Jul-30 11:27N 35°50' E 014°40'0 0.0
2015-Jul-30 10:25N 35°50' E 014°40'0 0.0
2015-Jul-30 09:29N 35°50' E 014°40'0 0.0
2015-Jul-30 08:32N 35°50' E 014°40'0 0.0
2015-Jul-30 07:22N 35°50' E 014°40'0 0.0
2015-Jul-30 06:26N 35°50' E 014°40'0 0.0
2015-Jul-30 05:33N 35°50' E 014°40'0 0.0
2015-Jul-30 04:28N 35°50' E 014°40'0 0.0
2015-Jul-30 03:21N 35°50' E 014°40'0 0.0
2015-Jul-29 21:15N 35°50' E 014°40'0 0.0
2015-Jul-29 20:22N 35°50' E 014°40'0 0.0
2015-Jul-29 19:31N 35°50' E 014°40'0 0.0
2015-Jul-29 18:32N 35°50' E 014°40'0 0.0
2015-Jul-29 17:33N 35°50' E 014°40'0 0.0
2015-Jul-29 16:33N 35°50' E 014°40'0 0.0
2015-Jul-29 15:33N 35°50' E 014°40'0 0.0
2015-Jul-29 14:33N 35°50' E 014°40'0 0.0
2015-Jul-29 13:33N 35°50' E 014°40'0 0.0
2015-Jul-29 12:33N 35°50' E 014°40'0 0.0
2015-Jul-29 11:33N 35°50' E 014°40'0 0.0
2015-Jul-29 10:32N 35°50' E 014°40'1 0.8
2015-Jul-29 09:26N 35°50' E 014°41'6516.3
2015-Jul-29 05:26N 35°53' E 016°02'37615.4
2015-Jul-28 05:04N 37°03' E 023°41'  

Dump ship's entire track history